TimeEDT,TemperatureF,Dew PointF,Humidity,Sea Level PressureIn,VisibilityMPH,Wind Direction,Wind SpeedMPH,Gust SpeedMPH,PrecipitationIn,Events,Conditions,WindDirDegrees,DateUTC
12:15 AM,57.2,55.4,94,29.90,10.0,Calm,Calm,-,N/A,,Overcast,0,2012-10-03 04:15:00
12:35 AM,57.2,55.4,94,29.90,10.0,Calm,Calm,-,N/A,,Mostly Cloudy,0,2012-10-03 04:35:00
12:54 AM,57.2,55.4,94,29.90,7.0,Calm,Calm,-,N/A,,Mostly Cloudy,0,2012-10-03 04:54:00
1:15 AM,57.2,55.4,94,29.90,7.0,Calm,Calm,-,N/A,,Overcast,0,2012-10-03 05:15:00
1:35 AM,57.2,55.4,94,29.90,7.0,Calm,Calm,-,N/A,,Overcast,0,2012-10-03 05:35:00
1:54 AM,57.2,55.4,94,29.91,7.0,Calm,Calm,-,N/A,,Overcast,0,2012-10-03 05:54:00
2:15 AM,57.2,55.4,94,29.91,5.0,Calm,Calm,-,N/A,,Overcast,0,2012-10-03 06:15:00
2:35 AM,57.2,55.4,94,29.92,2.5,Calm,Calm,-,N/A,Rain,Heavy Rain,0,2012-10-03 06:35:00
2:54 AM,57.2,55.4,94,29.91,3.0,ENE,5.8,-,N/A,,Light Drizzle,70,2012-10-03 06:54:00
3:15 AM,57.2,55.4,94,29.92,3.0,Calm,Calm,-,N/A,,Overcast,0,2012-10-03 07:15:00
3:34 AM,57.2,55.4,94,29.92,2.5,Calm,Calm,-,N/A,,Overcast,0,2012-10-03 07:34:00
3:55 AM,57.2,55.4,94,29.91,2.5,Calm,Calm,-,N/A,,Overcast,0,2012-10-03 07:55:00
4:15 AM,57.2,57.2,100,29.91,2.5,Calm,Calm,-,N/A,,Overcast,0,2012-10-03 08:15:00
4:35 AM,57.2,57.2,100,29.92,2.5,Calm,Calm,-,N/A,,Overcast,0,2012-10-03 08:35:00
5:14 AM,57.2,57.2,100,29.92,1.8,Calm,Calm,-,N/A,,Overcast,0,2012-10-03 09:14:00
5:35 AM,57.2,57.2,100,29.92,0.8,Calm,Calm,-,N/A,,Overcast,0,2012-10-03 09:35:00
5:55 AM,57.2,57.2,100,29.93,0.5,Calm,Calm,-,N/A,Fog,Fog,0,2012-10-03 09:55:00
6:14 AM,57.2,57.2,100,29.93,1.2,SSE,3.5,-,N/A,,Overcast,160,2012-10-03 10:14:00
6:55 AM,59.0,57.2,94,29.95,3.0,South,5.8,-,N/A,,Overcast,170,2012-10-03 10:55:00
7:14 AM,59.0,57.2,94,29.95,4.0,South,4.6,-,N/A,,Overcast,170,2012-10-03 11:14:00
7:35 AM,59.0,57.2,94,29.96,4.0,South,4.6,-,N/A,,Overcast,180,2012-10-03 11:35:00
7:54 AM,59.0,57.2,94,29.96,5.0,South,5.8,-,N/A,,Overcast,190,2012-10-03 11:54:00
8:15 AM,59.0,57.2,94,29.96,5.0,South,5.8,-,N/A,,Overcast,190,2012-10-03 12:15:00
8:35 AM,59.0,57.2,94,29.97,5.0,South,5.8,-,N/A,,Overcast,180,2012-10-03 12:35:00
8:54 AM,59.0,57.2,94,29.98,4.0,South,5.8,-,N/A,,Overcast,190,2012-10-03 12:54:00
9:15 AM,59.0,57.2,94,29.98,4.0,SSW,5.8,-,N/A,,Overcast,210,2012-10-03 13:15:00
9:35 AM,59.0,57.2,94,29.99,4.0,SSW,5.8,-,N/A,,Overcast,210,2012-10-03 13:35:00
9:55 AM,59.0,55.4,88,29.99,4.0,SSW,5.8,-,N/A,,Mostly Cloudy,210,2012-10-03 13:55:00
10:15 AM,59.0,57.2,94,29.99,4.0,SSW,5.8,-,N/A,,Mostly Cloudy,210,2012-10-03 14:15:00
10:34 AM,59.0,55.4,88,29.99,4.0,SSW,5.8,-,N/A,,Overcast,200,2012-10-03 14:34:00
11:15 AM,57.2,55.4,94,30.00,7.0,SSW,8.1,-,N/A,,Overcast,210,2012-10-03 15:15:00
11:34 AM,59.0,55.4,88,30.00,7.0,SSW,9.2,-,N/A,,Overcast,210,2012-10-03 15:34:00
11:55 AM,60.8,55.4,82,30.00,7.0,SSW,8.1,-,N/A,,Mostly Cloudy,200,2012-10-03 15:55:00
12:15 PM,59.0,55.4,88,30.00,7.0,SSW,8.1,-,N/A,,Overcast,200,2012-10-03 16:15:00
12:35 PM,60.8,55.4,82,30.00,7.0,South,8.1,-,N/A,,Overcast,180,2012-10-03 16:35:00
12:55 PM,60.8,55.4,82,30.00,7.0,South,8.1,-,N/A,,Overcast,180,2012-10-03 16:55:00
1:15 PM,60.8,55.4,82,30.00,10.0,South,9.2,-,N/A,,Overcast,170,2012-10-03 17:15:00
1:35 PM,60.8,55.4,82,30.00,10.0,SSW,9.2,-,N/A,,Overcast,200,2012-10-03 17:35:00
1:55 PM,60.8,55.4,82,29.99,10.0,South,9.2,-,N/A,,Overcast,190,2012-10-03 17:55:00
2:14 PM,62.6,55.4,77,29.99,10.0,SSW,10.4,-,N/A,,Overcast,200,2012-10-03 18:14:00
2:35 PM,60.8,55.4,82,29.99,10.0,SSW,11.5,16.1,N/A,,Overcast,210,2012-10-03 18:35:00
2:55 PM,60.8,55.4,82,29.99,10.0,SSW,11.5,-,N/A,,Overcast,210,2012-10-03 18:55:00
3:14 PM,59.0,55.4,88,29.99,10.0,SSW,10.4,16.1,N/A,,Overcast,200,2012-10-03 19:14:00
3:35 PM,60.8,55.4,82,29.99,10.0,SSW,9.2,-,N/A,,Overcast,200,2012-10-03 19:35:00
3:55 PM,60.8,55.4,82,29.99,10.0,SSW,9.2,-,N/A,,Overcast,200,2012-10-03 19:55:00
4:14 PM,60.8,55.4,82,30.00,10.0,South,13.8,-,N/A,,Overcast,190,2012-10-03 20:14:00
4:35 PM,60.8,55.4,82,29.99,10.0,South,10.4,-,N/A,,Overcast,190,2012-10-03 20:35:00
4:55 PM,60.8,55.4,82,29.99,10.0,SSW,11.5,-,N/A,,Overcast,200,2012-10-03 20:55:00
5:14 PM,60.8,55.4,82,30.00,7.0,South,9.2,-,N/A,,Overcast,190,2012-10-03 21:14:00
5:35 PM,60.8,55.4,82,30.00,7.0,SSW,11.5,-,N/A,,Overcast,200,2012-10-03 21:35:00
5:55 PM,60.8,55.4,82,30.01,5.0,SSW,12.7,17.3,N/A,,Overcast,200,2012-10-03 21:55:00
6:14 PM,60.8,55.4,82,30.01,7.0,South,8.1,-,N/A,,Overcast,190,2012-10-03 22:14:00
6:35 PM,60.8,55.4,82,30.01,10.0,SSW,9.2,-,N/A,,Overcast,200,2012-10-03 22:35:00
6:55 PM,59.0,55.4,88,30.02,7.0,SSW,9.2,-,N/A,,Overcast,210,2012-10-03 22:55:00
7:14 PM,59.0,55.4,88,30.02,7.0,SSW,6.9,-,N/A,Rain,Rain,200,2012-10-03 23:14:00
7:35 PM,59.0,55.4,88,30.03,10.0,South,5.8,-,N/A,,Overcast,190,2012-10-03 23:35:00
7:55 PM,59.0,55.4,88,30.03,7.0,South,5.8,-,N/A,,Overcast,190,2012-10-03 23:55:00
8:15 PM,59.0,55.4,88,30.03,10.0,SSW,5.8,-,N/A,,Overcast,200,2012-10-04 00:15:00
8:35 PM,59.0,55.4,88,30.03,10.0,SSW,3.5,-,N/A,,Mostly Cloudy,200,2012-10-04 00:35:00
8:55 PM,57.2,55.4,94,30.04,7.0,Calm,Calm,-,N/A,,Mostly Cloudy,0,2012-10-04 00:55:00
9:13 PM,57.2,55.4,94,30.04,7.0,Calm,Calm,-,N/A,,Overcast,0,2012-10-04 01:13:00
9:34 PM,57.2,55.4,94,30.04,7.0,Calm,Calm,-,N/A,,Overcast,0,2012-10-04 01:34:00
9:55 PM,57.2,55.4,94,30.04,7.0,Calm,Calm,-,N/A,,Overcast,0,2012-10-04 01:55:00
10:15 PM,57.2,55.4,94,30.04,7.0,Calm,Calm,-,N/A,,Overcast,0,2012-10-04 02:15:00
10:35 PM,57.2,55.4,94,30.05,7.0,Calm,Calm,-,N/A,,Overcast,0,2012-10-04 02:35:00
10:55 PM,57.2,55.4,94,30.05,10.0,South,4.6,-,N/A,,Overcast,190,2012-10-04 02:55:00
11:15 PM,57.2,53.6,88,30.05,10.0,SSW,5.8,-,N/A,,Overcast,200,2012-10-04 03:15:00
11:35 PM,59.0,53.6,82,30.05,10.0,SSW,5.8,-,N/A,,Overcast,200,2012-10-04 03:35:00
11:55 PM,59.0,53.6,82,30.05,10.0,SSW,8.1,-,N/A,,Overcast,200,2012-10-04 03:55:00